Regional Weather Roundup
Issued by NWS State College, PA

Home | Current Version | Previous Version | Graphics & Text | Print | Product List | Glossary Off
Versions: 1 2 3 4 5 6 7 8 9 10 11 12 13 14 15 16 17 18 19 20 21 22 23 24 25 26 27 28 29 30 31 32 33 34 35 36 37 38 39 40 41 42 43 44 45 46 47 48 49 50

000
ASUS41 KCTP 310603
RWRCTP

REGIONAL WEATHER ROUNDUP
NATIONAL WEATHER SERVICE STATE COLLEGE PA
200 AM EDT WED AUG 31 2016

Note: "fair" indicates few or no clouds below 12,000 feet with no
significant weather and/or obstructions to visibility.

* = STATION THAT DOES NOT REPORT PRECIPITATION /E.G. RAIN...SNOW...ETC/
    THUNDER OR FOG.

PAZ002>004-007>009-013>016-020>023-029>032-310700-
WESTERN PENNSYLVANIA

CITY           SKY/WX    TMP DP  RH WIND       PRES   REMARKS
ERIE           FAIR      72  64  76 S6        30.02F
MEADVILLE      FAIR      67  60  78 CALM      30.06F
FRANKLIN*        N/A     63  59  88 CALM      30.08S
NEW CASTLE     FAIR      62  60  93 CALM      30.06F
BEAVER COUNTY  NOT AVBL
BUTLER*        NOT AVBL
PITTSBURGH INT MOCLDY    65  58  78 CALM      30.06S
PITTSBURGH     PTCLDY    67  58  72 CALM      30.06F
INDIANA*       CLEAR     61  59  94 CALM      30.10F
LATROBE        PTCLDY    59  59 100 CALM      30.08F
WASHINGTON CO* PTCLDY    57  54  88 CALM      30.07F
$$

PAZ004>006-010>012-017>019-024>028-033>037-041-042-045-046-049>053-310700-
CENTRAL PENNSYLVANIA

CITY           SKY/WX    TMP DP  RH WIND       PRES   REMARKS
BRADFORD         N/A     61  61 100 SE3       30.10S
DUBOIS         FAIR      62  59  90 CALM      30.09S FOG
CLEARFIELD     NOT AVBL
JOHNSTOWN      CLOUDY    66  56  70 W3        30.12F
ALTOONA        CLEAR     62  60  93 CALM      30.09F
STATE COLLEGE  FAIR      64  59  83 SW5       30.07F
WILLIAMSPORT   FAIR      66  61  84 CALM      30.04S
SELINSGROVE    CLOUDY    61  61 100 CALM      30.05F
FT INDIANTOWN  PTCLDY    64  62  93 CALM      30.05F
CAPITAL CITY   CLEAR     69  62  78 CALM      30.04F
HARRISBURG     MOCLDY    69  64  84 CALM      30.04F
YORK           CLEAR     63  62  97 CALM      30.05F
$$

PAZ038>040-043-044-047-048-054-055-060>062-067>071-310700-
EASTERN PENNSYLVANIA

CITY           SKY/WX    TMP DP  RH WIND       PRES   REMARKS
SCRANTON       FAIR      66  59  78 E7        30.06S
MOUNT POCONO   FAIR      58  56  93 CALM      30.11S
ALLENTOWN      CLEAR     65  60  84 N3        30.06S
QUAKERTOWN*    CLEAR     63  59  88 CALM      30.07S
READING        CLEAR     67  63  87 CALM      30.04F
LANCASTER      CLEAR     65  64  97 SE3       30.05F
COATESVILLE    CLEAR     64  59  82 CALM      30.07F
POTTSTOWN      CLEAR     65  61  87 CALM      30.07S
BLUE BELL        N/A     63  63 100 CALM      30.05S VSB 3/4
DOYLESTOWN     PTCLDY    70  69  97 CALM      30.05S
WILLOW GROVE   NOT AVBL
NORTH PHILA    PTCLDY    74  72  93 CALM      30.06S
PHILADELPHIA   PTCLDY    74  71  91 SE5       30.04F
$$



USA.gov is the U.S. government's official web portal to all federal, state and local government web resources and services.